sat.trackr.live / text

‹ back to catalog

STARLINK-34464

NORAD 64664 · 2025-139A

PAYLOAD ACTIVE UNKNOWN

§ Identity

Operator
Country
US
Launch date
2025-06-28
Launch site
AFETR
Launch vehicle
Mass (kg)
RCS (m²)

Purposes: comms

External: N2YO · Heavens-Above · Gunter

§ Orbital elements

Epoch: 2026-09-20T06:14:12.737760Z

Period
93.85 min
Inclination
53.1579°
Eccentricity
0.0001154
Mean motion
15.34399137 rev/d
Perigee alt
461.9 km
Apogee alt
463.5 km
Semi-major
6,840.8 km
B*
2.9035e-4
RAAN
299.0323°
Arg perigee
81.8090°
Mean anomaly
278.3043°
Rev number
7,013

§ Raw data

STARLINK-344641 64664U 25139A   26263.25986965  .00009446  00000+0  29035-3 0  99992 64664  53.1579 299.0323 0001154  81.8090 278.3043 15.34399137 70136

JSON: /api/v1/satellites/64664 · /tle

For live sub-satellite position, see the globe view (requires WebGL).

§ Visibility from observer

Set your observer location to see the next 7 days of passes ≥ 10°. The values pass through the URL so the page stays shareable.

No JS? Fill the form by hand. The geolocation button needs JavaScript.